Hot Springs, VA

6:50 PM EDT on March 23, 2017 (GMT -0400)
Ingalls

Weather History for KHSP - February, 2015

Change the Weather History Date:

Sunday, February 1, 2015

  Actual Average Record
Temperature  
Mean Temperature 31 °F -  
Max Temperature 36 °F 34 °F 60 °F (2002)
Min Temperature 26 °F 20 °F 3 °F (2013)
Degree Days  
Heating Degree Days 34    
Moisture  
Dew Point 17 °F    
Average Humidity 60    
Maximum Humidity 100    
Minimum Humidity 29    
Precipitation  
Precipitation 0.32 in - - ()
Sea Level Pressure  
Sea Level Pressure 29.96 in    
Wind  
Wind Speed 12 mph (SSW)    
Max Wind Speed 17 mph    
Max Gust Speed 25 mph    
Visibility 7 miles    
Events Rain , Snow    
Averages and records for this station are not official NWS values.
T = Trace of Precipitation, MM = Missing Value Source: NWS Daily Summary

Daily Weather History Graph

Daily Weather History Graph

Search for Another Location

Airport or City:

Trip Planner

Search our weather history database for the weather conditions in past years. The results will help you decide how hot, cold, wet, or windy it might be!

Date:

Astronomy

Feb. 01, 2015 Rise Set
Actual Time 7:23 AM EST 5:42 PM EST
Civil Twilight 6:56 AM EST 6:10 PM EST
Nautical Twilight 6:24 AM EST 6:41 PM EST
Astronomical Twilight 5:53 AM EST 7:12 PM EST
Moon 3:59 PM EST (2/1) 5:30 AM EST (2/1)
Length of Visible Light 11h 13m
Length of Day
10h 18m
Waxing Gibbous, 95% of the Moon is Illuminated
Feb 1
Waxing Gibbous
Feb 3
Full
Feb 11
Last Quarter
Feb 18
New
Feb 25
First Quarter

Hourly Weather History & Observations

Time (EST) Temp. Windchill Dew Point Humidity Pressure Visibility Wind Dir Wind Speed Gust Speed Precip Events Conditions
12:15 AM 26.6 °F 13.8 °F 2.3 °F 35% 30.09 in 10.0 mi West 17.3 mph - N/A   Clear
12:35 AM 26.6 °F 13.8 °F 2.7 °F 36% 30.10 in 10.0 mi West 17.3 mph - N/A   Scattered Clouds
12:55 AM 27.0 °F 14.3 °F 1.8 °F 34% 30.09 in 10.0 mi West 17.3 mph 25.3 mph N/A   Overcast
1:15 AM 27.1 °F 14.5 °F 1.4 °F 33% 30.09 in 10.0 mi West 17.3 mph 23.0 mph N/A   Overcast
1:35 AM 27.5 °F 15.4 °F 1.2 °F 32% 30.09 in 10.0 mi West 16.1 mph - N/A   Overcast
1:55 AM 27.5 °F 15.9 °F 1.2 °F 32% 30.09 in 10.0 mi West 15.0 mph - N/A   Overcast
2:15 AM 27.3 °F 16.6 °F 1.2 °F 33% 30.09 in 10.0 mi West 12.7 mph - N/A   Overcast
2:35 AM 27.5 °F 16.8 °F 2.1 °F 34% 30.10 in 10.0 mi West 12.7 mph - N/A   Overcast
2:55 AM 27.5 °F 17.4 °F 2.3 °F 34% 30.09 in 10.0 mi West 11.5 mph - N/A   Overcast
3:15 AM 27.7 °F 18.2 °F 2.5 °F 34% 30.09 in 10.0 mi West 10.4 mph - N/A   Overcast
3:35 AM 27.5 °F 18.0 °F 3.4 °F 36% 30.09 in 10.0 mi West 10.4 mph - N/A   Overcast
3:55 AM 27.5 °F 18.6 °F 3.0 °F 35% 30.09 in 10.0 mi West 9.2 mph - N/A   Mostly Cloudy
4:15 AM 27.5 °F 18.0 °F 4.1 °F 37% 30.09 in 10.0 mi West 10.4 mph - N/A   Overcast
4:35 AM 27.9 °F 18.4 °F 4.3 °F 37% 30.09 in 10.0 mi West 10.4 mph - N/A   Overcast
4:55 AM 28.4 °F 19.7 °F 5.4 °F 38% 30.09 in 10.0 mi West 9.2 mph - N/A   Mostly Cloudy
5:15 AM 28.0 °F 20.0 °F 5.2 °F 38% 30.09 in 10.0 mi West 8.1 mph - N/A   Mostly Cloudy
5:35 AM 28.0 °F 20.8 °F 7.5 °F 42% 30.09 in 10.0 mi West 6.9 mph - N/A   Overcast
5:55 AM 28.4 °F 21.2 °F 7.2 °F 41% 30.09 in 10.0 mi West 6.9 mph - N/A   Overcast
6:15 AM 29.8 °F 22.2 °F 18.3 °F 62% 30.09 in 10.0 mi WSW 8.1 mph - N/A   Overcast
6:35 AM 31.1 °F 23.7 °F 23.5 °F 74% 30.09 in 10.0 mi West 8.1 mph - N/A   Overcast
6:55 AM 32.0 °F 24.8 °F 25.3 °F 76% 30.10 in 10.0 mi West 8.1 mph - N/A   Overcast
7:15 AM 32.2 °F 25.0 °F 27.5 °F 83% 30.10 in 10.0 mi West 8.1 mph - N/A   Overcast
7:35 AM 33.4 °F 28.1 °F 29.8 °F 87% 30.10 in 10.0 mi West 5.8 mph - N/A   Overcast
7:55 AM 33.8 °F 27.7 °F 30.0 °F 86% 30.10 in 10.0 mi WSW 6.9 mph - N/A   Overcast
8:15 AM 33.3 °F 26.4 °F 29.5 °F 86% 30.10 in 10.0 mi WSW 8.1 mph - N/A   Overcast
8:35 AM 34.3 °F 27.7 °F 30.2 °F 85% 30.10 in 10.0 mi WSW 8.1 mph - N/A   Overcast
8:55 AM 34.0 °F 29.8 °F 25.2 °F 70% 30.11 in 10.0 mi SW 4.6 mph - N/A   Overcast
9:15 AM 33.8 °F 25.8 °F 27.7 °F 78% 30.11 in 10.0 mi SW 10.4 mph - N/A   Overcast
9:35 AM 34.7 °F 27.5 °F 28.0 °F 77% 30.11 in 7.0 mi WSW 9.2 mph - N/A Rain Light Rain
9:55 AM 35.6 °F 28.0 °F 25.3 °F 66% 30.11 in 10.0 mi SW 10.4 mph - N/A   Overcast
10:15 AM 36.3 °F 32.5 °F 24.3 °F 62% 30.09 in 10.0 mi SW 4.6 mph - N/A   Overcast
10:35 AM 35.4 °F 31.5 °F 18.0 °F 49% 30.07 in 10.0 mi South 4.6 mph - N/A   Overcast
10:55 AM 36.7 °F - 17.4 °F 46% 30.06 in 10.0 mi Calm Calm - N/A   Overcast
11:15 AM 34.2 °F 27.5 °F 10.0 °F 37% 30.07 in 10.0 mi South 8.1 mph - N/A   Overcast
11:35 AM 34.3 °F 30.2 °F 7.9 °F 33% 30.05 in 10.0 mi SSE 4.6 mph - N/A   Overcast
11:50 AM 34.7 °F 29.6 °F 7.7 °F 32% 30.03 in 10.0 mi SSE 5.8 mph - N/A   Overcast
12:15 PM 35.6 °F 29.9 °F 5.7 °F 29% 30.02 in 10.0 mi SE 6.9 mph - N/A   Overcast
12:35 PM 34.9 °F 28.3 °F 7.9 °F 32% 30.01 in 10.0 mi SSE 8.1 mph - N/A   Overcast
12:55 PM 35.6 °F 29.9 °F 15.3 °F 43% 29.99 in 10.0 mi SSE 6.9 mph - N/A   Mostly Cloudy
1:15 PM 35.4 °F 27.3 °F 10.8 °F 36% 29.96 in 10.0 mi SE 11.5 mph 18.4 mph N/A   Overcast
1:35 PM 35.1 °F 25.9 °F 10.0 °F 35% 29.95 in 10.0 mi SSE 13.8 mph 17.3 mph N/A   Overcast
1:55 PM 34.9 °F 26.6 °F 9.5 °F 35% 29.93 in 10.0 mi SSE 11.5 mph 16.1 mph N/A   Overcast
2:15 PM 35.1 °F 28.6 °F 10.4 °F 36% 29.93 in 10.0 mi SSE 8.1 mph - N/A   Overcast
2:35 PM 34.9 °F 27.1 °F 9.3 °F 35% 29.93 in 10.0 mi South 10.4 mph - N/A   Overcast
2:55 PM 34.9 °F 28.3 °F 8.6 °F 34% 29.92 in 10.0 mi SSE 8.1 mph - N/A   Overcast
3:15 PM 34.9 °F 27.1 °F 9.3 °F 35% 29.91 in 10.0 mi SSE 10.4 mph - N/A   Overcast
3:35 PM 34.7 °F 27.5 °F 9.5 °F 35% 29.91 in 10.0 mi SSE 9.2 mph - N/A   Overcast
3:55 PM 34.3 °F 25.0 °F 9.9 °F 36% 29.91 in 10.0 mi South 13.8 mph 18.4 mph N/A   Overcast
4:15 PM 34.2 °F 27.5 °F 10.9 °F 38% 29.90 in 10.0 mi SSE 8.1 mph 17.3 mph N/A   Overcast
4:35 PM 34.3 °F 25.0 °F 12.2 °F 40% 29.89 in 10.0 mi South 13.8 mph 18.4 mph N/A   Overcast
4:55 PM 34.7 °F 28.8 °F 12.9 °F 41% 29.88 in 10.0 mi South 6.9 mph - N/A   Overcast
5:15 PM 34.7 °F 27.5 °F 18.5 °F 52% 29.87 in 4.0 mi SSW 9.2 mph - N/A Snow Light Snow
5:35 PM 34.9 °F 27.7 °F 16.5 °F 47% 29.87 in 10.0 mi SSW 9.2 mph - N/A Snow Light Snow
5:55 PM 33.6 °F 25.6 °F 22.6 °F 64% 29.85 in 5.0 mi South 10.4 mph 19.6 mph N/A Snow Light Snow
6:15 PM 32.0 °F 23.6 °F 26.6 °F 80% 29.85 in 3.0 mi South 10.4 mph - N/A Snow Light Snow
6:35 PM 31.5 °F 23.5 °F 29.7 °F 93% 29.84 in 1.8 mi South 9.2 mph 16.1 mph N/A Snow Light Snow
6:55 PM 31.1 °F 21.9 °F 31.1 °F 100% 29.83 in 1.2 mi South 11.5 mph - N/A Snow Light Snow
7:15 PM 30.9 °F 22.8 °F 30.9 °F 100% 29.81 in 0.2 mi SSE 9.2 mph 17.3 mph 0.01 in Snow Snow
7:35 PM 31.1 °F 21.9 °F 31.1 °F 100% 29.80 in 0.2 mi South 11.5 mph 17.3 mph 0.01 in Snow Snow
7:55 PM 31.1 °F 23.1 °F 31.1 °F 100% 29.79 in 0.2 mi South 9.2 mph - 0.01 in Snow Light Snow
8:15 PM 32.0 °F 23.0 °F 32.0 °F 100% 29.78 in 0.2 mi South 11.5 mph 19.6 mph 0.01 in Snow Light Snow
8:35 PM 32.2 °F 22.7 °F 32.2 °F 100% 29.76 in 0.2 mi South 12.7 mph 19.6 mph 0.01 in Snow Light Snow
8:55 PM 32.2 °F 22.7 °F 32.2 °F 100% 29.75 in 0.2 mi South 12.7 mph 18.4 mph 0.03 in Snow Light Snow
9:15 PM 32.9 °F 23.2 °F 32.9 °F 100% 29.74 in 0.2 mi South 13.8 mph 20.7 mph 0.03 in Snow Light Snow
9:35 PM 32.9 °F 24.7 °F 32.9 °F 100% 29.72 in 0.2 mi South 10.4 mph 17.3 mph 0.08 in Snow Light Snow
9:55 PM 33.3 °F 24.1 °F 33.3 °F 100% 29.71 in 0.2 mi South 12.7 mph 17.3 mph 0.11 in   Overcast
10:15 PM 33.4 °F 24.3 °F 33.4 °F 100% 29.70 in 0.2 mi South 12.7 mph 18.4 mph 0.02 in   Overcast
10:35 PM 33.4 °F 25.4 °F 33.4 °F 100% 29.67 in 0.2 mi South 10.4 mph 18.4 mph 0.03 in   Overcast
10:55 PM 33.8 °F 24.3 °F 33.8 °F 100% 29.66 in 0.2 mi South 13.8 mph 17.3 mph 0.05 in   Overcast
11:15 PM 34.3 °F 25.9 °F 34.3 °F 100% 29.66 in 0.2 mi South 11.5 mph 17.3 mph 0.02 in Snow Snow
11:35 PM 34.7 °F 25.1 °F 34.7 °F 100% 29.65 in 0.2 mi SSW 15.0 mph 19.6 mph 0.06 in Rain Light Rain
11:55 PM 34.9 °F 26.2 °F 34.9 °F 100% 29.64 in 0.2 mi SSW 12.7 mph 19.6 mph 0.12 in Rain Rain